Location: Newark
(52.6086°N, 2.1080°W)
Time: 06:35:54
(UTC+00:00)

N. Korean satellite - Visible Passes

Search period start: 27 January 2020 00:00
Search period end: 06 February 2020 00:00
Orbit: 454 x 507 km, 97.2° (Epoch: 26 January)

Date Brightness Start Highest point End Pass type
(mag) Time Alt. Az. Time Alt. Az. Time Alt. Az.
27 Jan 9.9 04:53:21 10° ENE 04:55:07 13° E 04:56:53 10° ESE visible
27 Jan 6.5 06:25:21 10° N 06:28:54 64° WNW 06:32:29 10° SSW visible
28 Jan 6.9 05:59:49 10° NNE 06:03:24 66° ESE 06:07:00 10° S visible
28 Jan 9.9 18:16:20 10° WSW 18:17:58 13° W 18:19:37 10° WNW visible
29 Jan 8.3 05:34:29 10° NNE 05:37:48 34° E 05:41:09 10° SSE visible
29 Jan 7.7 07:08:09 10° N 07:11:05 24° WNW 07:14:02 10° WSW visible
29 Jan 9.3 17:49:25 10° SSW 17:52:13 23° W 17:55:03 10° NW visible
30 Jan 9.4 05:09:28 10° NE 05:12:08 19° E 05:14:50 10° SE visible
30 Jan 6.9 06:42:17 10° N 06:45:43 42° WNW 06:49:10 10° SW visible
30 Jan 7.9 17:23:16 10° S 17:26:34 43° W 17:29:54 10° NNW visible
31 Jan 10.1 04:45:22 10° ENE 04:46:23 11° E 04:47:24 10° ESE visible
31 Jan 6.5 06:16:39 10° NNE 06:20:16 80° WNW 06:23:55 10° SSW visible
01 Feb 7.4 05:51:10 10° NNE 05:54:44 53° E 05:58:19 10° S visible
01 Feb 9.8 18:07:01 10° SW 18:09:12 16° W 18:11:24 10° NW visible
02 Feb 8.7 05:25:55 10° NNE 05:29:07 28° E 05:32:20 10° SSE visible
02 Feb 7.5 06:59:19 10° N 07:02:29 29° WNW 07:05:40 10° SW visible
02 Feb 8.9 17:40:27 10° SSW 17:43:29 28° W 17:46:33 10° NNW visible
03 Feb 9.7 05:01:02 10° NE 05:03:25 16° E 05:05:47 10° SE visible
03 Feb 6.7 06:33:32 10° N 06:37:05 52° WNW 06:40:40 10° SSW visible
04 Feb 6.6 06:07:56 10° NNE 06:11:36 83° ESE 06:15:18 10° SSW visible
04 Feb 10.3 18:25:24 10° W 18:26:13 11° W 18:27:03 10° WNW visible
05 Feb 7.9 05:42:31 10° NNE 05:46:03 43° E 05:49:35 10° S visible
05 Feb 9.7 17:57:51 10° SW 18:00:25 19° W 18:03:03 10° NW visible
